Regional Weather Roundup
Issued by NWS

Home | Current Version | Previous Version | Text Only | Print | Product List | Glossary Off
Versions: 1 2 3 4 5 6 7 8 9 10 11 12 13 14 15 16 17 18 19 20 21 22 23 24 25 26 27 28 29 30 31 32 33 34 35 36 37 38 39 40 41 42 43 44 45 46 47 48 49 50

000
ASUS45 KSLC 180210
RWRUT

UTAH REGIONAL WEATHER ROUNDUP
NATIONAL WEATHER SERVICE SALT LAKE CITY UT
800 PM MDT FRI APR 17 2015

UTZ001>011-023>025-180300-

NORTHERN UTAH

CITY           SKY/WX    TMP DP  RH WIND       PRES   REMARKS
BRIGHAM CITY   PTCLDY    63  37  37 SW3       29.99R
HILL AFB       CLOUDY    58  38  48 E10       30.02R
LOGAN          MOCLDY    62  38  40 S3        29.98R
OGDEN          CLOUDY    59  33  37 S5        30.00R
PROVO AIRPORT  MOCLDY    57  36  44 NW10      30.00R
SALT LAKE CITY MOCLDY    59  36  42 E6        30.01S
VERNAL         CLOUDY    47  32  56 NE14      30.04S
WENDOVER       CLEAR     64  21  19 SE6       30.01R
HEBER CITY     CLOUDY    50  32  50 N12       30.04R
WEST JORDAN    CLEAR     55  37  50 CALM      30.02F

$$

UTZ012>022-026-027-180300-

SOUTHERN/CENTRAL UTAH

CITY           SKY/WX    TMP DP  RH WIND       PRES   REMARKS
BLANDING       CLOUDY    36  34  94 CALM      30.10R
BRYCE CANYON   CLOUDY    42  28  57 NW15      30.08R
CEDAR CITY     MOCLDY    52  28  39 N8        30.04S
DELTA          CLEAR     59  28  30 N9        30.00S
HANKSVILLE     CLOUDY    46  43  87 NE12G20   30.05R
MILFORD        PTCLDY    57  26  30 N10       30.02S
MOAB/CYNLANDS  LGT RAIN  41  39  93 SE7       30.01S
PRICE          CLOUDY    45  36  70 NE9       30.02R
ST GEORGE      MOCLDY    68  28  22 S3        29.97S
KANAB          MOCLDY    55  28  35 N6        30.05R

$$

REGIONAL REPORTS     COLORADO/ARIZONA

CITY           SKY/WX    TMP DP  RH WIND       PRES   REMARKS
CRAIG, CO      CLOUDY    40  37  89 SW13      29.98S WCI  32
GRAND JUNCTION LGT RAIN  36  35  96 CALM      30.03R
RIFLE          CLOUDY    36  33  89 W3        30.03S
MONTROSE       LGT RAIN  37  34  89 SE7       30.03S WCI  32
CORTEZ         CLOUDY    40  28  62 SE5       30.03S
PAGE, AZ       CLOUDY    59  31  34 NE3       29.97S
GRAND CANYON   PTCLDY    42  27  55 CALM      30.08S
KINGMAN        CLEAR     67  20  16 NE8       30.00F
FLAGSTAFF      CLOUDY    44  27  51 W3        30.10R

$$

REGIONAL REPORTS    NEVADA/IDAHO/WYOMING

CITY           SKY/WX    TMP DP  RH WIND       PRES   REMARKS
LAS VEGAS, NV  PTCLDY    78  13   8 S12       29.87F
ELY            CLEAR     59  11  15 N13       30.06S
ELKO           CLEAR     64  19  17 NW14      30.06R
POCATELLO, ID  CLEAR     62  22  21 SW8       30.01S
BURLEY         CLEAR     60  24  25 W10       30.01S
EVANSTON, WY   CLOUDY    39  33  79 E7        30.12R WCI  34
ROCK SPRINGS   CLOUDY    36  34  92 NE22      30.09S WCI  25
KEMMERER       MOCLDY    37  34  87 S8        30.13R WCI  31

$$



USA.gov is the U.S. government's official web portal to all federal, state and local government web resources and services.